{"data":{"norad_id":87553,"intl_designator":"","name":"UNKNOWN","alt_names":[],"object_type":"UNKNOWN","status":"UNKNOWN","operator":null,"country":null,"launch_date":null,"launch_site_code":null,"launch_vehicle":null,"mission":null,"orbit_class":"UNKNOWN","rcs_meters":null,"size_class":null,"mass_kg":null,"dimensions":null,"purposes":[],"wikipedia_slug":null,"has_3d_model":false,"image_url":null,"decayed_at":null,"tle_current":{"epoch":"2026-09-18T15:09:04.735584Z","epoch_age_seconds":175881,"freshness":"STALE","line1":"1 87553U          26261.63130481  .00001360  00000+0  46800-3 0  9991","line2":"2 87553  65.6714  37.8317 0676458 101.8665 265.9015 13.54893842629159","mean_motion":13.54893842,"eccentricity":0.0676458,"inclination_deg":65.6714,"raan_deg":37.8317,"arg_perigee_deg":101.8665,"mean_anomaly_deg":265.9015,"bstar":0.000468,"rev_number":62915,"period_min":106.28138938726,"perigee_km":551.53364083537,"apogee_km":1557.0809194036,"semimajor_km":7432.4442801195,"source":"CELESTRAK","updated_at":"2026-09-20T09:00:32.475864Z"}}}